Location: Griffin Ranch
(33.6186°N, 110.6622°W)
Time: 01:35:32
(UTC-07:00)

Cosmos 1812 - Visible Passes

Search period start: 02 August 2014 00:00
Search period end: 12 August 2014 00:00
Orbit: 534 x 542 km, 82.5° (Epoch: 01 August)

Date Brightness Start Highest point End Pass type
(mag) Time Alt. Az. Time Alt. Az. Time Alt. Az.
02 Aug 4.3 20:41:46 10° NNE 20:44:44 20° ENE 20:44:44 20° ENE visible
02 Aug 5.2 22:17:53 10° NW 22:20:13 19° WNW 22:20:13 19° WNW visible
03 Aug 4.2 20:33:43 10° NNE 20:36:41 20° ENE 20:37:01 20° E visible
03 Aug 5.1 22:09:49 10° NW 22:12:30 20° W 22:12:30 20° W visible
04 Aug 4.2 20:25:40 10° NNE 20:28:37 20° ENE 20:29:18 19° E visible
04 Aug 5.0 22:01:45 10° NW 22:04:38 20° W 22:04:47 20° W visible
05 Aug 4.2 20:17:37 10° NNE 20:20:33 20° ENE 20:21:38 18° E visible
05 Aug 5.0 21:53:40 10° NW 21:56:34 20° W 21:57:07 20° W visible
06 Aug 4.3 20:09:33 10° NNE 20:12:29 20° ENE 20:13:59 16° ESE visible
06 Aug 5.0 21:45:35 10° NW 21:48:30 20° W 21:49:28 19° WSW visible
07 Aug 4.3 20:01:30 10° NNE 20:04:25 20° ENE 20:06:22 14° ESE visible
07 Aug 5.0 21:37:30 10° NW 21:40:26 20° W 21:41:52 17° WSW visible
08 Aug 4.3 19:53:26 10° NNE 19:56:20 20° ENE 19:58:48 12° ESE visible
08 Aug 5.1 21:29:24 10° NW 21:32:21 21° W 21:34:17 15° SW visible
09 Aug 4.3 19:45:21 10° NNE 19:48:15 19° ENE 19:51:07 10° SE visible
09 Aug 5.1 21:21:19 10° NW 21:24:16 21° W 21:26:46 12° SW visible
10 Aug 4.3 19:37:17 10° NNE 19:40:09 19° ENE 19:43:01 10° SE visible
10 Aug 5.1 21:13:13 10° NW 21:16:11 21° W 21:19:10 10° SW visible
11 Aug 5.2 21:05:06 10° NW 21:08:06 21° W 21:11:05 10° SW visible
